Location: ??????
(55.7522°N, 37.6156°E)
Time: 17:21:22
(UTC+00:00)

Cosmos 2279 Rocket - Pass Details

Date: 14 June 2025
Orbit: 962 x 978 km, 82.9° (Epoch: 12 July)

Event Time Altitude Azimuth Distance (km) Brightness Sun altitude
Rises 21:31:12 0° 348° (NNW) 3,664 8.9 -10.9°
Reaches altitude 10° 21:33:44 10° 352° (N) 2,713 7.9 -10.9°
Maximum altitude 21:39:56 68° 75° (ENE) 1,040 4.2 -10.9°
Enters shadow 21:46:00 10° 158° (SSE) 2,668 5.7 -10.9°
